Wind_Speed
10 10 9 10 10 9 9 8 7 7 8 9 10 11 11 12 12 12 12 12 12 12 11 11 11 11 12 12 12 13 14 14 13 11 11 13 15 17 19 21 21 19 18 16 14 13 10 8 6 5 7 6 5 7 8 8 9 9 10 9 5 1 4 13 20 23 24 22 22 22 21 20 21 21 21 21 18 12 11 16 21 22 20 21 23 23 23 22
11 10 10 10 10 10 10 9 8 7 7 7 8 9 11 12 12 13 13 12 12 12 12 12 11 11 12 12 12 12 13 14 14 12 13 14 13 14 16 19 21 20 18 16 15 13 10 8 7 7 8 7 6 7 8 9 10 11 12 10 7 3 7 15 19 21 21 20 21 22 20 20 19 19 19 20 18 15 15 20 23 21 20 23 25 23 23 21
13 12 11 10 10 10 11 10 9 8 7 7 7 7 9 11 12 13 14 14 13 12 12 12 12 12 12 12 12 12 12 13 14 14 14 13 13 14 15 17 19 20 19 17 16 14 12 10 9 9 9 8 7 7 8 9 10 11 12 12 10 8 14 21 20 19 18 18 20 21 20 19 18 17 18 18 18 17 18 23 24 19 19 25 25 23 22 21
14 13 12 11 11 11 11 11 10 9 8 7 6 6 7 9 11 13 14 14 14 14 13 12 12 12 12 12 13 12 12 13 14 15 15 14 15 14 14 16 19 20 20 20 19 17 16 14 13 12 10 10 9 8 8 9 9 10 12 11 10 10 14 20 20 18 16 18 20 20 19 18 17 17 18 18 18 19 19 21 20 14 18 25 24 23 22 20
13 13 13 13 12 11 11 11 11 10 10 8 7 6 6 7 9 11 13 14 15 15 14 13 13 12 12 12 12 12 12 13 14 16 16 15 15 14 14 16 18 20 21 22 21 20 18 16 14 13 12 11 11 10 9 9 9 9 9 9 8 8 10 15 18 17 14 17 22 20 18 18 17 17 18 18 17 18 18 19 16 10 16 23 22 22 22 20
13 13 13 13 13 13 12 12 11 11 10 10 9 7 6 7 8 10 12 14 15 15 15 14 14 13 13 13 12 12 12 11 13 15 16 16 16 15 15 16 18 20 22 23 22 21 20 17 15 14 13 13 12 11 10 10 9 8 7 7 6 6 7 11 16 16 14 14 19 20 19 18 17 17 18 17 15 15 17 18 13 11 18 21 20 21 21 20
13 13 13 13 12 13 13 13 12 11 11 10 10 8 7 7 7 9 10 12 14 15 15 15 15 14 13 13 13 12 13 12 12 16 17 18 17 16 16 17 17 19 22 24 23 22 20 18 16 16 15 13 12 11 10 9 9 8 8 7 6 6 6 9 13 14 12 12 15 18 18 17 17 16 17 16 14 14 17 17 13 14 21 21 19 19 19 19
13 13 12 12 11 11 12 13 12 12 11 11 10 10 8 7 7 8 9 11 13 14 15 15 15 15 14 14 13 13 14 14 13 16 18 19 18 17 17 17 16 17 20 22 22 21 20 19 19 18 15 13 12 10 9 8 8 8 6 5 5 5 7 8 11 13 12 13 15 17 16 16 16 15 15 15 14 15 16 15 15 18 22 21 19 18 19 18
12 12 11 11 10 10 11 12 12 12 12 12 11 10 9 8 8 8 9 10 11 13 14 15 16 16 15 15 14 13 14 15 15 16 18 19 19 18 18 17 15 15 18 21 22 21 20 21 21 18 14 13 11 9 8 7 7 7 6 5 4 5 6 7 10 14 14 14 15 16 15 15 16 15 15 15 15 15 15 15 18 20 21 21 19 18 18 18
11 10 11 11 11 11 11 12 13 13 13 13 12 11 10 9 9 8 8 9 10 12 14 15 16 16 16 16 15 14 14 16 16 17 18 20 20 20 19 18 15 14 16 20 21 20 20 21 21 17 14 12 10 9 8 6 6 7 5 5 5 5 6 9 9 12 13 14 15 15 14 16 17 16 16 15 14 16 17 18 21 21 20 20 19 18 18 17
10 10 11 11 11 12 12 13 13 14 14 14 14 13 11 10 10 9 8 9 10 11 13 15 16 16 16 17 16 15 16 17 17 18 18 20 22 21 20 19 17 15 16 19 19 19 20 23 22 18 15 12 11 9 6 5 6 6 5 6 5 4 7 10 10 12 14 15 16 15 13 15 17 16 17 15 15 18 20 20 22 21 20 20 20 19 18 18
10 11 11 11 11 11 12 13 14 14 15 15 15 14 12 11 11 9 8 8 10 11 12 14 15 16 16 16 16 16 17 17 17 17 17 20 22 23 22 21 19 17 16 18 19 19 22 23 22 19 16 14 12 8 5 6 7 5 7 7 4 3 8 9 11 14 14 15 18 16 13 16 18 17 18 16 16 19 21 21 22 22 21 20 20 20 19 19
10 10 10 10 11 11 11 12 13 14 15 15 15 14 13 12 11 10 9 8 9 11 12 14 15 16 16 16 17 17 16 16 16 16 16 18 21 23 22 22 22 20 19 20 20 22 22 22 22 20 17 15 12 8 7 9 8 7 9 6 3 5 9 8 9 13 13 15 19 19 17 18 17 18 18 17 17 20 22 22 22 22 22 21 21 20 19 19
10 10 10 10 10 10 11 12 13 13 14 14 14 13 13 12 11 10 9 9 9 11 12 13 14 16 16 17 18 17 16 16 16 16 16 18 21 23 22 23 23 22 22 24 25 25 22 21 23 21 17 15 12 9 10 11 8 7 9 7 4 4 9 10 8 10 12 15 21 22 21 20 18 19 19 18 19 20 21 23 23 23 23 22 22 21 20 19
9 9 9 9 9 9 10 11 12 12 12 12 12 11 12 12 11 10 9 9 9 10 12 13 14 15 16 17 18 17 15 16 17 19 19 19 20 22 23 23 24 22 23 26 29 29 26 25 26 21 17 17 14 11 13 12 7 7 9 9 7 4 7 10 8 8 11 15 21 22 21 21 21 20 19 19 20 20 20 22 24 23 23 23 22 21 19 18
9 9 9 9 8 9 9 10 11 12 11 10 10 10 10 10 10 10 9 7 7 9 11 13 14 15 16 17 18 17 15 16 17 19 20 21 21 22 24 25 25 23 23 27 29 30 29 28 27 22 18 18 16 13 13 10 7 10 11 9 8 6 7 11 10 9 10 14 20 21 18 20 24 23 21 20 21 22 21 22 24 24 23 23 21 20 19 18
9 9 9 8 8 8 9 9 11 11 10 9 8 8 8 8 9 8 7 6 6 8 11 12 14 15 15 17 18 18 18 18 17 17 18 22 24 23 23 25 26 24 24 28 30 31 30 28 27 23 20 19 18 15 13 12 12 13 12 10 8 8 9 11 12 11 11 12 17 18 15 18 24 25 22 21 20 22 22 22 24 25 23 23 21 20 19 19
9 9 8 8 8 8 8 9 10 10 9 8 8 7 7 7 7 7 7 5 5 7 10 11 13 14 14 16 17 19 20 20 17 17 18 20 23 24 23 25 27 25 26 31 32 31 30 28 26 23 22 21 20 19 17 15 15 14 13 11 8 8 9 11 11 11 11 11 13 17 14 15 22 24 23 22 21 22 23 22 24 25 24 23 22 20 19 18
9 9 8 7 6 6 7 7 8 8 9 8 8 7 6 6 6 6 6 5 5 7 8 10 14 14 13 16 18 19 21 19 16 16 17 17 21 25 26 27 27 26 28 33 33 31 29 27 26 26 25 23 22 21 17 12 10 11 11 9 8 9 8 8 10 10 10 10 12 16 15 14 20 23 23 23 22 23 24 22 23 25 25 23 22 21 20 18
9 9 8 7 5 5 5 6 7 8 8 8 8 8 6 6 6 6 5 4 5 7 8 10 14 15 14 16 18 19 19 17 15 15 16 18 21 26 27 28 28 26 29 34 33 31 28 27 27 29 27 24 22 18 11 8 9 11 11 8 8 8 8 7 9 10 10 11 11 14 16 15 17 21 22 23 24 25 26 24 23 24 25 25 23 21 20 18
9 9 8 6 4 4 4 5 6 7 8 8 9 9 8 7 7 7 5 4 4 7 8 9 13 14 15 15 16 18 17 16 17 16 18 20 22 26 27 29 28 27 31 33 32 30 27 27 30 29 25 21 20 16 11 10 12 13 11 8 7 6 7 7 8 10 11 12 12 12 16 17 14 16 21 23 24 25 26 25 23 23 25 26 24 22 21 18
9 8 7 4 3 3 4 5 6 7 8 9 10 10 9 8 7 7 3 2 4 6 8 10 13 13 14 14 14 17 17 16 19 19 20 21 22 24 26 28 27 27 32 32 30 29 27 30 32 27 23 22 20 19 16 12 14 15 12 9 8 6 6 6 6 10 11 12 13 12 15 17 14 14 18 23 23 22 24 25 23 22 24 26 26 24 21 20
8 7 6 4 3 4 5 5 6 7 8 8 10 9 8 7 6 6 4 1 2 5 10 14 15 13 13 13 13 15 15 17 20 20 21 21 21 22 24 26 26 27 32 32 29 28 28 29 30 27 23 22 21 21 20 17 16 16 13 10 9 6 5 4 5 8 11 12 12 11 12 16 15 14 18 22 23 24 25 27 26 24 23 24 24 23 21 20
7 6 5 4 5 5 5 5 6 7 7 6 6 6 5 5 5 6 5 4 4 8 14 16 15 13 12 11 11 13 14 17 20 20 20 20 20 20 22 23 25 28 30 30 28 28 29 25 24 26 24 23 23 21 21 21 19 18 16 13 10 6 4 4 4 7 12 13 12 9 10 15 16 16 20 22 25 27 28 28 28 27 25 24 23 22 21 19
6 4 4 4 5 6 6 5 6 7 7 5 4 5 7 6 6 6 6 5 6 11 16 17 14 12 12 11 12 13 13 15 17 17 18 19 18 17 20 22 24 26 25 26 26 26 30 23 16 20 25 25 24 22 21 22 23 21 19 16 11 6 5 6 6 9 14 14 13 11 8 11 16 19 20 22 25 27 29 29 30 29 26 26 24 22 21 20
4 3 4 5 6 7 6 5 6 6 6 5 5 7 9 8 8 8 8 8 11 15 15 13 11 10 12 12 13 13 12 13 15 14 14 16 15 14 19 21 21 22 21 23 24 24 27 25 17 15 21 25 25 24 23 22 23 23 20 16 12 8 8 9 10 11 15 14 13 13 9 7 12 19 21 22 24 26 29 31 32 32 29 27 26 24 22 21
2 4 4 5 8 8 7 6 6 7 7 8 9 10 9 8 8 9 8 8 10 13 10 10 9 8 11 12 13 10 8 11 13 11 11 13 11 12 16 18 18 19 20 21 22 22 23 24 20 15 17 23 25 26 24 23 24 24 21 16 11 8 9 12 11 11 15 14 11 14 14 7 7 15 21 23 24 26 30 32 33 35 33 29 28 26 24 22
3 5 5 6 8 8 8 9 9 10 11 11 11 10 9 7 7 7 6 4 5 7 7 10 9 8 12 13 12 7 5 11 12 10 11 11 10 11 12 13 13 15 18 21 22 20 18 20 20 17 17 21 24 25 23 23 26 25 19 14 11 8 9 11 10 11 15 15 12 16 18 8 6 10 17 22 27 29 30 32 34 36 34 31 30 28 26 24
5 6 6 7 9 10 10 11 12 12 11 11 12 12 11 8 7 7 5 3 3 5 6 8 8 9 12 12 11 7 6 10 9 9 12 12 10 10 10 9 10 12 15 19 22 19 16 16 17 17 17 20 22 21 21 23 29 27 17 11 13 9 9 8 9 14 16 13 13 19 20 12 5 8 16 21 24 26 30 32 32 35 35 32 31 30 28 25
5 6 8 9 10 11 11 12 13 12 11 11 12 14 15 12 8 6 4 5 4 4 2 7 9 7 10 11 10 9 9 8 5 7 11 13 11 9 9 8 9 11 12 14 19 18 17 16 16 18 18 18 18 17 17 22 28 27 17 12 13 9 7 10 13 13 11 8 15 20 22 16 6 7 16 20 12 11 20 30 32 34 35 34 31 30 28 26
5 8 9 10 11 11 11 11 12 10 10 10 9 11 14 16 15 9 4 5 6 6 4 6 9 6 6 9 10 10 10 7 3 5 9 13 13 10 9 9 9 10 10 12 15 15 16 18 18 19 19 17 16 14 15 20 24 21 15 13 11 6 8 12 13 9 5 5 12 16 21 20 12 10 11 12 9 5 9 20 29 33 34 34 31 29 28 26
6 9 10 11 11 10 10 11 10 10 10 10 10 10 12 15 16 13 7 5 5 6 4 5 7 6 4 5 10 12 10 7 4 6 10 13 13 11 9 9 9 10 9 12 13 12 15 18 18 18 19 18 16 14 16 19 20 18 17 15 9 7 7 5 4 3 4 7 6 7 17 20 19 19 14 14 15 12 8 9 20 30 32 32 32 29 28 27
7 9 10 11 11 11 11 11 11 11 10 11 13 13 15 14 11 13 12 8 6 7 4 4 4 5 6 6 9 10 7 5 5 8 12 14 13 12 11 9 10 10 9 10 10 10 11 15 18 19 18 20 19 17 18 19 19 21 22 20 12 6 4 2 1 2 4 11 8 5 12 13 15 17 18 19 18 18 15 9 12 24 30 30 30 30 29 28
8 9 10 11 12 11 11 11 11 11 10 12 11 11 15 14 10 12 15 12 10 8 5 4 5 6 7 7 7 8 7 5 5 9 14 13 12 11 11 11 11 11 11 10 8 7 6 9 17 20 18 19 22 20 17 14 16 21 23 21 18 11 5 4 5 4 5 5 6 9 9 7 8 10 14 16 14 16 18 13 10 17 27 30 29 31 31 29
9 9 10 11 10 10 11 11 10 9 9 11 9 11 14 12 10 13 14 13 11 8 5 5 6 7 6 5 5 6 6 5 6 10 12 10 9 8 8 9 11 13 14 11 6 5 6 6 12 19 19 17 19 20 16 12 13 18 20 21 22 18 10 6 10 16 13 5 7 13 10 7 9 11 14 13 12 13 15 15 12 14 24 31 30 31 30 28
10 10 11 10 9 9 9 10 9 8 8 4 4 13 18 13 11 12 11 12 11 7 5 6 6 5 4 3 5 5 5 6 8 10 10 8 7 7 7 5 6 11 16 13 7 5 6 6 8 14 19 18 16 15 17 16 13 15 20 23 22 19 15 9 9 13 11 4 5 11 11 11 11 12 15 14 12 12 13 15 14 12 19 30 31 30 30 29
12 12 12 11 10 9 8 9 9 10 10 6 6 14 17 13 12 12 9 10 10 6 2 6 7 5 4 5 6 5 5 7 8 10 11 8 6 7 8 5 2 4 11 12 10 7 8 9 8 10 14 18 17 14 16 18 15 15 20 23 21 17 17 13 6 4 4 2 4 10 11 12 11 8 12 14 12 13 14 15 16 13 15 23 28 29 29 29
14 13 13 11 10 10 8 8 9 10 11 11 13 15 13 12 12 11 9 9 8 6 5 8 8 6 6 6 6 6 7 8 8 11 12 9 6 8 8 5 5 3 3 8 8 5 6 8 8 9 11 15 18 17 16 19 19 16 17 21 20 14 15 14 6 2 4 2 1 6 9 11 12 11 11 12 12 14 15 16 17 15 14 18 23 25 28 29
14 13 11 10 10 10 9 9 10 10 10 13 15 14 12 11 10 10 10 9 7 7 9 10 9 7 7 7 7 7 7 9 11 12 11 8 6 6 7 6 6 5 1 5 6 4 4 4 4 6 9 12 17 19 18 19 21 18 15 21 23 15 14 17 11 5 5 4 1 2 5 8 15 17 13 12 14 16 18 19 18 16 15 17 21 23 27 28
12 11 10 10 10 9 9 9 10 10 11 13 13 11 10 10 8 8 8 8 8 8 9 9 8 9 11 11 12 11 8 10 12 11 9 9 7 4 4 4 5 4 3 3 4 5 5 5 4 5 7 10 14 17 18 18 19 19 18 23 26 19 14 15 12 8 6 4 4 3 2 7 15 18 15 14 15 19 21 21 20 19 17 17 20 23 25 27
10 10 11 11 10 9 9 10 11 11 11 11 10 10 10 9 8 7 7 8 7 7 8 7 8 10 12 13 13 12 11 11 9 8 8 10 7 3 1 1 2 3 2 2 2 3 4 5 6 6 4 8 12 15 17 18 18 18 18 21 24 21 17 12 7 8 7 4 6 6 3 6 15 19 17 15 16 20 22 23 23 21 19 18 18 20 22 24
10 10 11 11 10 8 8 10 11 10 10 10 9 8 7 6 6 7 8 7 6 7 7 6 7 9 10 10 11 11 11 10 8 8 8 8 5 3 2 1 2 2 1 1 2 3 4 5 6 4 1 7 12 13 16 18 18 18 18 18 20 20 20 15 7 9 11 6 6 8 3 5 14 17 16 16 18 20 22 23 23 22 20 19 18 19 20 21
9 10 10 9 8 7 7 9 9 7 7 7 6 7 6 4 5 5 6 6 7 7 6 6 7 8 8 7 8 8 8 9 9 9 9 7 3 1 1 2 4 4 3 3 3 3 5 6 5 2 3 8 11 13 15 17 17 18 18 16 17 18 19 18 11 11 15 11 9 7 2 5 13 15 15 16 18 20 21 22 22 20 19 20 19 19 19 18
9 10 8 7 6 6 6 8 7 6 5 4 4 5 5 4 3 4 5 5 7 7 7 7 6 6 6 6 6 7 6 7 8 9 8 6 3 1 1 2 3 4 4 3 3 3 4 4 5 2 3 7 9 10 12 14 15 17 18 17 16 15 17 18 13 11 14 14 13 8 4 7 12 14 15 16 17 20 21 22 21 19 18 19 20 20 19 18
9 9 5 4 4 4 6 6 6 5 4 2 2 3 4 3 3 5 5 4 4 5 6 7 7 6 4 4 5 6 6 7 8 8 7 6 4 3 1 1 2 4 4 3 3 2 2 3 3 1 4 4 3 2 3 6 11 14 16 18 17 15 15 15 13 12 13 14 15 10 6 9 13 14 16 17 16 18 21 21 21 19 18 17 17 17 16 16
8 6 3 2 3 4 6 5 4 3 2 1 3 2 2 2 2 3 3 3 3 4 5 5 6 6 5 4 6 7 8 8 8 8 7 6 5 4 2 0 2 3 2 2 2 1 6 10 11 11 11 8 5 5 5 2 6 9 11 13 15 15 14 12 11 12 12 14 16 13 9 10 14 16 17 17 17 18 19 20 20 18 17 16 14 14 13 13
8 7 5 4 5 5 5 4 3 1 1 1 2 3 3 0 2 2 1 2 2 2 4 3 3 4 5 4 6 8 7 6 6 7 7 6 4 4 3 2 1 2 3 3 3 5 11 15 16 16 15 12 9 10 9 4 3 7 9 10 11 12 13 13 10 9 11 13 14 15 13 11 12 17 19 19 19 19 17 17 16 15 14 13 12 12 12 12
8 8 8 6 6 5 4 3 1 1 2 3 2 2 2 1 2 2 0 1 1 1 2 2 1 3 4 3 3 5 6 5 6 6 5 5 4 2 2 3 2 1 2 4 4 6 11 16 16 13 12 11 10 11 12 9 5 4 8 9 9 9 10 12 10 8 10 11 11 12 14 13 11 14 19 20 20 18 15 14 14 13 12 11 11 11 12 13
8 9 10 8 6 6 4 4 3 1 2 4 3 2 2 2 2 3 2 2 3 2 1 1 1 2 3 3 3 3 4 4 4 4 4 4 3 1 1 2 2 2 2 2 4 6 8 12 15 12 7 7 8 7 9 11 8 2 5 7 8 8 8 10 11 10 10 10 9 10 13 14 12 11 15 19 20 17 16 15 14 13 13 12 11 11 11 13
8 9 10 9 7 7 4 3 2 1 1 2 2 1 2 3 4 4 4 4 4 3 1 1 1 1 0 2 4 4 5 4 3 3 3 2 2 1 0 2 2 3 4 3 2 6 7 7 11 15 11 4 5 3 4 7 9 5 3 6 8 8 8 7 9 12 12 11 11 12 13 16 15 10 12 18 20 18 17 16 14 13 13 12 12 12 13 13
9 8 9 9 8 7 5 3 3 1 1 2 2 3 5 5 6 6 3 1 1 2 3 2 1 0 2 2 2 4 6 6 4 3 2 1 2 2 2 2 3 4 5 6 3 2 6 5 7 15 18 10 1 2 1 2 3 4 2 3 5 6 8 8 6 9 10 9 11 14 16 17 16 13 14 19 20 19 17 14 12 12 11 11 12 14 14 13
11 9 8 9 8 8 7 5 4 4 3 3 3 4 6 7 7 6 3 3 3 2 3 3 1 1 2 2 1 6 8 6 5 3 2 1 2 2 3 4 5 7 7 7 6 3 3 4 5 11 19 18 13 5 3 5 2 2 5 6 5 3 4 6 6 7 8 7 7 11 14 15 15 16 19 21 21 18 15 12 10 10 11 12 12 13 12 10
Wind_Direction
330 327 324 321 318 316 313 309 300 287 273 261 252 247 245 243 244 245 244 243 240 238 238 236 233 229 228 227 224 220 218 215 210 201 194 198 203 203 200 202 206 205 205 207 203 203 196 178 166 153 155 156 137 102 80 67 58 59 55 50 55 9 187 172 166 162 171 174 168 166 161 160 161 157 159 162 165 175 175 166 170 168 167 171 167 160 154 151
326 325 323 320 318 316 314 312 309 302 292 279 265 253 246 242 241 241 242 242 240 238 236 235 234 231 229 226 224 222 218 215 209 201 201 203 203 203 202 202 206 205 203 204 203 202 191 176 167 156 153 150 138 108 83 72 65 61 62 54 42 63 146 155 162 163 168 175 171 168 165 164 168 164 165 171 173 177 176 169 170 169 168 172 169 163 158 152
326 325 323 321 318 316 314 312 309 305 299 290 280 266 252 243 238 238 239 239 239 237 235 234 232 232 231 226 223 220 218 217 207 203 204 199 201 202 197 199 204 204 200 198 198 194 183 176 172 160 154 151 142 115 94 80 72 68 67 61 49 72 121 136 155 165 165 174 174 168 166 166 170 170 170 176 175 174 176 169 166 169 174 175 172 166 160 153
326 325 324 321 318 315 312 310 309 306 300 294 286 274 261 248 239 236 235 235 235 233 232 232 230 230 231 228 223 219 216 215 206 205 203 199 204 202 194 196 200 202 198 195 193 189 182 179 175 165 160 152 136 114 101 90 82 74 67 67 67 76 109 132 155 168 169 177 174 167 166 166 172 173 174 178 173 168 171 167 162 171 182 178 172 168 161 154
323 321 320 319 317 314 311 309 308 307 304 299 291 278 265 253 243 237 234 232 232 230 228 228 228 227 229 228 224 219 214 212 207 204 201 202 206 200 196 196 196 199 197 194 192 188 184 182 174 165 158 144 127 113 103 99 93 84 74 73 74 79 112 142 163 172 179 181 172 169 169 167 174 176 175 179 174 164 162 163 167 182 187 180 173 167 161 155
318 316 314 314 313 312 310 308 307 306 304 302 298 288 271 257 246 240 235 232 230 227 224 223 224 225 226 226 224 219 210 209 207 200 198 200 203 198 196 199 197 197 196 195 193 188 185 181 171 160 150 136 124 114 105 105 101 99 100 95 89 85 112 154 174 178 182 180 173 173 171 171 176 177 176 174 173 167 160 164 175 183 183 182 175 168 162 158
315 312 311 310 309 308 307 306 304 302 300 298 296 293 282 265 251 242 237 233 230 226 222 220 220 221 223 222 221 217 209 206 201 195 195 197 200 197 197 202 200 197 197 196 194 190 185 177 163 153 146 135 125 117 108 104 104 111 117 109 105 111 129 160 173 178 175 170 179 181 175 177 178 176 175 168 168 171 164 168 180 178 178 182 177 168 163 160
313 311 310 309 307 304 302 302 301 299 296 293 291 289 285 274 259 246 237 234 231 227 222 218 216 216 219 219 217 214 208 204 197 191 191 193 197 196 199 205 202 197 196 196 196 192 186 173 158 152 146 139 132 121 109 99 102 118 130 122 116 142 153 149 157 170 171 169 186 189 181 183 179 176 175 165 166 172 169 172 179 177 177 179 176 169 165 164
311 309 308 307 306 302 297 295 294 294 291 288 285 283 281 276 266 253 241 234 230 227 224 218 214 212 214 216 214 211 208 205 198 191 189 191 193 194 199 204 203 198 194 193 193 192 187 172 159 156 152 146 139 125 112 96 106 134 153 145 142 176 156 126 147 165 169 172 183 187 187 187 182 181 180 170 168 173 176 177 174 175 176 175 175 171 167 167
309 306 305 303 302 300 295 289 287 285 284 282 281 279 278 274 268 259 247 236 229 226 224 220 214 210 210 211 211 208 205 204 199 194 189 189 190 192 197 199 198 197 194 191 189 189 186 173 165 164 159 156 151 136 117 104 130 153 169 161 171 197 139 109 139 160 163 168 174 183 188 187 188 190 185 177 173 176 178 176 172 173 175 172 173 173 170 169
306 304 302 301 301 300 296 292 286 282 280 277 276 276 276 272 267 260 250 239 229 223 223 221 215 210 207 207 207 205 203 204 202 197 190 188 189 190 194 193 190 193 192 185 183 185 183 177 173 169 166 167 159 139 116 121 144 156 185 197 209 197 128 112 131 152 159 163 168 180 191 192 196 198 190 182 178 177 175 173 171 171 173 171 171 174 172 171
307 305 303 303 304 304 303 298 292 287 281 277 274 274 273 271 266 261 252 240 230 222 220 220 216 209 206 205 205 204 203 205 204 200 194 189 189 189 191 188 185 187 185 179 178 179 180 178 175 174 176 171 158 145 137 145 146 164 189 208 234 165 129 126 137 149 160 167 164 168 192 203 202 200 194 186 180 178 175 172 170 168 173 174 172 175 174 173
312 309 306 306 308 312 312 307 302 297 289 282 276 273 272 270 266 262 253 240 229 221 217 217 215 208 203 201 203 202 202 205 205 200 196 194 192 189 189 186 184 183 179 176 177 176 177 179 178 182 180 167 160 162 164 158 154 174 183 193 219 143 145 155 151 150 159 171 164 164 190 205 204 201 197 191 186 182 177 173 169 170 175 177 176 176 176 177
318 312 309 308 313 318 319 317 313 307 300 292 283 276 271 268 265 260 251 240 228 220 214 213 212 206 201 199 200 198 197 201 203 197 193 195 195 189 187 186 186 186 180 176 176 179 182 184 186 187 179 168 169 172 174 170 162 176 181 186 195 150 160 171 166 160 160 167 167 170 190 200 201 205 202 197 192 187 182 175 171 172 176 180 180 178 180 179
319 313 307 306 313 319 322 326 324 317 310 302 292 280 269 268 267 262 255 245 231 221 213 210 210 204 199 199 197 193 192 194 197 196 193 193 193 190 187 185 188 188 183 178 178 182 188 189 189 188 180 173 173 177 183 179 170 179 184 190 194 193 185 177 174 176 166 168 173 179 193 197 196 203 207 201 194 191 187 179 175 174 177 180 181 180 181 179
321 313 304 301 306 310 318 329 329 325 320 311 300 283 273 271 270 270 268 259 243 227 213 209 208 202 197 197 194 187 181 185 191 194 196 196 193 190 186 184 187 188 185 180 177 180 186 189 190 189 184 178 176 180 184 186 188 185 189 196 193 200 201 185 182 185 179 181 184 188 197 201 197 200 206 203 195 192 189 184 179 176 178 181 182 182 181 179
323 314 305 302 299 299 311 325 330 330 327 317 304 292 283 277 276 280 280 266 246 228 214 211 204 197 195 193 190 183 176 180 187 189 195 199 196 192 188 185 186 187 185 180 175 178 185 190 192 190 187 183 181 179 180 196 201 189 192 201 199 204 205 196 193 192 192 194 192 193 198 203 202 202 206 204 197 193 190 186 182 180 181 183 184 184 182 183
325 317 310 307 300 297 307 321 329 332 330 320 308 302 291 282 282 281 276 260 236 220 211 210 199 190 190 190 188 184 181 182 185 187 190 195 196 193 190 187 186 187 185 179 177 181 187 191 192 191 191 189 185 183 187 202 201 191 191 198 206 212 210 207 208 207 202 200 197 199 201 202 204 204 205 204 200 196 192 189 185 183 183 184 187 188 185 185
326 319 315 315 307 303 311 321 330 334 332 322 311 306 294 288 288 281 277 260 227 211 207 204 193 185 185 188 188 184 184 185 184 187 187 187 192 194 191 185 185 189 186 181 180 184 189 193 193 194 193 189 186 188 197 211 207 197 191 197 217 225 220 211 214 222 217 211 202 200 204 200 200 203 202 200 199 197 195 193 188 185 185 187 189 189 189 188
326 322 322 325 318 315 321 330 336 335 330 321 311 304 294 291 289 288 286 268 234 209 205 200 191 188 182 185 190 183 181 184 183 182 180 179 186 192 190 183 183 189 188 184 184 187 192 197 197 196 193 190 190 189 195 207 203 199 199 214 233 237 243 231 223 231 226 223 213 200 205 205 201 204 202 200 200 199 198 196 192 189 187 189 191 190 193 189
328 324 326 333 334 339 349 352 344 335 328 317 311 307 303 302 296 302 299 272 254 212 203 196 186 183 178 184 193 185 181 182 177 175 174 172 178 186 187 183 184 188 186 185 187 190 196 202 200 197 194 197 201 190 176 178 182 188 196 207 213 215 235 241 237 239 231 227 222 206 206 209 208 207 203 202 202 201 201 199 196 194 191 190 191 193 194 188
330 325 329 347 11 28 29 8 347 337 331 321 320 321 318 317 314 322 329 255 250 208 187 177 168 167 172 183 193 187 183 178 172 171 169 169 175 181 183 183 185 188 186 186 189 193 201 205 202 199 199 203 207 196 185 183 178 180 188 190 191 190 204 220 228 235 233 226 222 215 209 209 211 212 209 207 205 204 205 203 201 200 197 194 193 195 195 189
330 326 337 12 55 60 46 13 353 344 338 333 337 338 330 328 336 351 12 98 204 172 160 155 150 154 169 184 193 187 180 173 170 170 168 169 173 177 182 183 185 187 188 190 192 196 203 208 205 203 206 207 211 205 198 202 195 192 199 198 200 199 201 222 228 223 221 218 221 217 211 213 213 216 219 215 210 208 207 206 206 205 200 198 197 196 196 193
329 331 353 40 70 65 49 20 1 350 344 347 351 356 1 4 18 24 40 79 101 138 147 143 140 150 166 177 181 178 176 173 172 171 169 168 171 176 181 183 186 187 189 194 197 201 206 210 208 208 212 211 215 216 209 211 212 212 214 208 207 213 231 262 261 220 204 211 222 207 202 215 214 216 221 219 214 211 209 209 208 208 202 198 199 199 200 199
331 346 27 65 74 63 50 21 358 349 345 350 9 27 35 44 52 48 58 75 97 127 135 135 139 153 161 156 154 160 167 173 176 175 172 169 171 178 180 183 189 188 191 197 200 207 210 209 207 209 215 216 219 222 218 217 221 224 220 211 210 225 259 275 264 219 196 203 216 199 193 220 216 215 219 217 215 212 210 210 210 210 206 200 199 199 201 203
338 24 63 82 76 64 52 26 2 356 355 10 43 54 53 60 62 64 75 80 107 127 132 138 145 154 158 151 149 154 158 168 180 183 177 173 175 183 184 187 193 193 197 201 203 214 215 211 208 207 213 217 220 223 222 221 226 229 224 214 215 232 259 272 259 221 197 198 208 200 201 232 223 217 216 216 216 215 213 212 211 211 210 204 200 200 203 205
21 65 80 87 73 63 55 42 33 35 43 54 60 60 59 60 60 70 81 81 108 124 129 145 146 145 156 155 154 155 152 163 176 181 179 181 185 187 188 193 198 199 203 205 209 219 219 213 211 212 210 211 217 220 219 221 225 227 223 214 216 239 267 273 260 228 206 197 193 198 207 235 256 229 218 216 217 218 217 215 212 211 212 208 202 201 204 207
72 79 85 88 72 65 62 59 59 61 67 67 61 56 52 53 55 66 78 80 128 142 145 151 141 139 155 157 157 156 142 159 170 178 179 187 197 194 193 199 205 206 207 210 214 220 221 214 211 215 212 209 213 213 212 217 220 220 219 215 218 243 284 278 254 225 205 191 185 197 204 221 279 242 220 218 220 222 220 216 213 212 212 209 206 204 205 208
92 90 90 89 76 72 71 69 68 67 69 63 56 52 46 50 55 60 71 75 139 157 170 168 147 138 156 165 164 159 149 157 170 185 184 190 197 198 198 198 202 203 207 215 219 220 221 215 212 216 218 216 212 208 208 212 215 216 215 218 222 243 282 266 230 211 198 193 205 203 199 206 264 246 215 212 220 229 225 216 213 212 211 209 208 206 206 209
103 101 94 90 85 81 75 70 68 64 62 56 54 57 55 57 55 57 69 47 59 81 120 184 174 160 174 188 184 171 162 153 151 175 186 194 194 196 199 195 195 197 202 217 224 226 221 216 220 221 220 218 212 210 208 207 214 217 214 219 229 244 244 205 191 189 181 213 233 216 203 204 241 256 219 212 224 246 231 218 212 210 209 209 209 207 207 209
110 105 96 92 90 86 75 70 67 61 57 51 58 70 68 64 56 55 70 36 36 46 61 171 189 203 206 204 198 187 180 174 174 181 188 197 197 197 198 194 192 196 208 224 230 233 227 222 226 224 219 214 210 211 205 203 211 211 204 216 220 195 181 181 181 175 159 233 246 231 213 207 221 241 231 231 245 275 250 226 216 210 207 208 207 206 206 208
112 106 99 94 93 90 79 74 70 66 65 64 74 81 76 66 51 42 41 31 29 33 56 157 190 207 196 188 194 195 190 193 211 194 187 195 198 198 198 199 198 200 215 228 234 245 241 233 228 222 218 212 209 211 205 204 207 200 198 210 198 143 145 169 178 181 214 231 249 232 207 208 230 245 255 264 256 255 268 247 226 217 211 208 206 206 206 207
112 109 103 98 99 94 82 77 75 73 72 73 80 83 77 70 46 33 36 35 32 28 48 127 153 177 169 157 179 193 191 194 205 189 186 190 191 197 204 208 209 211 220 228 240 256 252 239 226 219 217 213 209 212 212 209 205 199 200 202 189 141 115 145 140 21 255 239 246 218 195 213 245 254 259 264 260 253 251 251 236 224 218 213 209 208 209 209
115 113 107 104 102 92 79 78 79 78 79 79 87 91 78 64 39 36 40 39 36 31 54 112 117 145 156 143 157 178 178 175 183 183 185 187 189 198 212 220 217 214 223 235 252 264 257 236 221 215 217 215 212 212 213 213 209 203 202 204 203 189 160 160 179 193 207 211 206 187 187 222 243 246 256 261 261 252 241 235 234 225 220 219 215 213 213 213
118 112 110 110 103 87 76 77 81 85 89 86 86 81 69 51 34 38 36 34 37 39 69 113 132 143 144 132 137 160 168 156 156 174 181 187 196 196 204 223 225 219 226 238 253 261 259 245 217 212 216 218 216 214 213 211 211 209 207 212 216 211 206 192 193 207 204 148 146 180 195 234 235 246 260 260 260 251 236 226 221 219 215 216 217 216 216 216
120 110 109 109 100 87 77 79 85 90 95 107 90 69 62 52 46 45 35 34 34 37 87 123 131 131 127 140 146 143 154 153 153 168 172 176 184 167 161 187 216 223 230 234 237 249 262 249 204 207 219 221 218 218 215 210 210 213 211 215 219 217 221 212 192 208 208 163 163 187 206 230 232 253 261 253 252 241 225 215 212 214 212 211 214 216 216 218
120 112 109 105 96 89 87 90 94 91 91 109 104 75 64 57 54 53 45 37 33 29 100 131 113 102 113 154 170 152 140 147 156 166 163 156 147 128 132 136 123 226 234 234 238 252 268 255 217 208 222 219 216 217 213 210 213 217 216 217 215 214 222 217 186 182 181 151 200 196 209 224 217 238 251 243 239 225 212 206 205 210 212 210 212 214 217 221
119 115 111 106 100 98 101 104 98 92 93 96 90 77 67 59 53 52 48 37 33 44 87 112 105 107 127 145 161 152 142 145 155 164 157 143 121 109 110 106 75 33 240 220 224 241 273 267 234 223 227 217 215 219 214 210 215 225 227 218 209 203 210 207 187 153 166 140 248 209 219 227 216 221 238 233 221 212 206 202 202 207 209 207 207 210 215 220
119 117 116 114 111 108 109 107 99 98 100 91 80 71 67 63 51 45 47 40 38 59 79 93 101 115 128 129 137 146 154 156 158 164 159 146 136 118 102 89 76 55 97 197 214 239 275 287 243 228 233 219 214 217 214 205 206 216 222 212 206 204 202 199 199 194 173 166 184 212 224 230 221 220 228 226 212 203 202 201 200 202 204 202 201 204 211 217
121 120 122 121 117 112 108 104 103 106 98 84 74 69 68 67 55 43 42 40 41 61 78 88 101 115 122 123 126 130 132 143 157 167 168 165 160 141 107 92 92 84 97 181 224 259 265 268 269 260 244 221 209 210 209 200 195 200 203 199 198 198 193 192 202 202 172 156 159 167 225 227 217 215 220 224 212 199 198 200 199 198 200 201 199 202 207 213
134 128 124 121 117 110 104 103 105 104 94 83 73 69 69 69 62 51 44 42 45 63 80 94 108 117 124 125 124 126 121 123 141 149 151 158 152 116 72 98 110 113 114 157 225 263 265 272 288 291 254 203 199 202 200 196 195 199 204 202 198 199 194 183 190 199 187 166 164 173 200 219 212 211 213 217 211 200 196 198 200 200 200 201 201 203 206 209
142 135 127 124 116 104 100 107 109 102 96 90 73 63 71 73 60 52 54 57 58 67 80 97 112 122 131 130 125 129 128 120 122 126 125 131 126 86 42 317 297 293 305 313 291 284 293 312 314 304 200 175 188 194 190 192 198 202 207 208 204 207 205 198 196 191 186 174 171 181 190 218 215 213 208 207 206 201 197 199 203 205 204 205 207 208 209 209
138 136 132 126 114 102 103 109 108 101 100 101 80 61 61 63 50 42 46 56 61 68 83 97 109 124 134 134 133 138 135 120 114 119 115 111 116 97 8 324 311 302 295 302 314 300 296 316 332 340 128 141 152 158 165 174 187 198 202 202 202 207 208 210 215 198 188 180 169 173 164 209 215 215 209 207 205 202 201 201 205 209 211 213 215 216 216 213
143 143 135 123 110 103 115 116 108 103 102 105 97 69 43 42 67 62 43 45 58 66 84 96 97 112 122 130 149 159 155 130 117 118 120 119 125 158 284 302 297 290 285 281 295 304 300 317 332 333 122 124 127 135 149 160 170 181 186 191 199 200 201 209 210 190 187 187 183 184 177 193 206 209 208 209 206 205 206 206 209 211 214 217 220 224 226 223
160 152 136 122 108 104 126 126 114 110 101 93 122 89 35 36 74 66 46 42 56 58 77 97 94 91 106 142 162 162 167 155 137 132 135 137 133 135 185 261 266 277 283 263 265 312 27 37 22 73 125 117 116 95 118 156 164 169 173 180 191 194 196 202 195 183 188 192 192 195 186 190 198 200 205 209 208 209 211 212 215 216 216 218 222 227 231 230
178 175 172 171 142 128 130 121 107 123 130 146 170 153 84 56 49 47 52 65 70 53 61 94 102 90 97 150 161 151 155 155 145 140 144 147 136 123 117 180 242 251 231 201 213 124 105 93 84 93 101 96 89 70 55 120 161 166 170 172 180 189 196 198 192 193 197 195 198 205 207 205 199 195 200 205 208 213 215 217 221 220 218 220 223 227 232 232
188 192 190 172 150 142 136 117 100 119 161 175 170 153 147 79 357 15 93 95 84 47 41 73 125 120 107 122 133 132 138 149 151 147 150 158 146 107 78 53 18 216 194 180 157 129 120 104 89 87 89 86 85 80 74 72 121 160 170 172 177 187 194 195 199 205 200 198 206 212 216 216 203 198 199 199 203 210 212 215 220 221 221 223 225 228 231 233
196 191 187 179 167 164 171 187 225 304 270 241 221 149 158 262 328 326 181 76 57 315 4 33 163 163 144 138 121 116 121 137 150 147 149 162 157 122 79 43 43 110 179 192 175 148 130 111 99 93 86 90 95 83 76 70 65 145 166 169 182 192 197 199 204 207 202 206 216 215 215 216 206 201 201 198 200 202 200 204 211 212 218 223 224 224 225 230
202 196 194 198 196 185 191 220 243 302 290 247 223 180 195 254 283 286 286 295 294 289 306 304 252 195 176 203 221 176 152 146 136 131 141 158 168 170 107 30 27 54 84 175 183 174 152 124 121 131 117 95 103 93 82 75 61 90 171 162 165 179 195 205 209 213 213 215 216 212 212 212 208 205 200 194 193 194 195 201 208 212 219 223 226 227 225 228
202 200 200 207 210 203 208 226 199 79 338 261 211 221 273 290 300 303 300 287 277 271 265 250 235 240 192 228 239 217 189 176 145 117 120 146 172 208 341 31 39 46 46 59 152 179 181 152 150 171 179 126 72 88 124 93 60 54 152 155 145 152 163 182 203 212 216 218 212 206 205 204 203 203 191 186 188 194 200 206 213 217 222 224 224 220 214 214
207 205 205 213 215 209 209 209 193 198 276 255 264 299 301 303 307 308 305 253 217 203 199 192 169 90 2 340 250 190 167 160 151 138 140 156 162 199 265 326 343 351 9 20 35 165 187 179 169 183 189 187 142 26 90 117 77 64 95 119 112 128 142 147 167 189 199 208 209 207 204 202 201 191 177 180 187 193 198 204 211 211 209 212 214 211 207 206
220 221 220 221 217 207 202 205 217 231 239 250 287 312 307 298 295 293 263 187 169 176 196 209 223 266 348 357 188 166 151 136 128 131 150 198 201 221 251 276 297 311 332 354 14 55 153 183 178 180 184 189 198 215 336 359 48 44 4 14 30 58 124 140 151 164 177 191 209 214 206 200 197 186 176 178 183 187 191 193 199 206 207 210 211 210 209 211
Height
3133 3132 3131 3131 3130 3130 3130 3130 3130 3130 3130 3130 3131 3131 3131 3132 3132 3133 3133 3133 3134 3134 3135 3135 3136 3137 3137 3138 3140 3141 3142 3143 3143 3145 3146 3146 3146 3147 3149 3150 3151 3153 3155 3156 3158 3159 3160 3161 3161 3162 3162 3162 3162 3162 3162 3162 3161 3161 3161 3160 3160 3159 3159 3160 3162 3163 3165 3167 3168 3170 3172 3173 3174 3175 3177 3178 3179 3181 3182 3183 3184 3185 3188 3190 3192 3192 3193 3194
3132 3132 3131 3130 3130 3129 3129 3129 3129 3129 3129 3129 3129 3130 3130 3130 3130 3131 3131 3132 3132 3133 3134 3134 3135 3135 3136 3137 3138 3139 3141 3141 3143 3144 3145 3145 3146 3147 3148 3149 3150 3152 3154 3156 3158 3159 3160 3161 3162 3162 3162 3162 3163 3163 3163 3162 3162 3162 3162 3161 3161 3160 3159 3160 3164 3166 3167 3169 3170 3171 3173 3174 3176 3177 3177 3178 3179 3180 3182 3183 3185 3187 3189 3191 3192 3193 3194 3195
3131 3131 3131 3130 3129 3129 3128 3128 3128 3127 3128 3128 3128 3128 3129 3129 3129 3129 3130 3130 3131 3132 3132 3133 3133 3134 3135 3136 3137 3138 3139 3140 3142 3143 3144 3145 3146 3146 3148 3149 3150 3151 3153 3155 3157 3159 3160 3161 3161 3162 3162 3162 3163 3163 3163 3163 3163 3163 3163 3162 3162 3162 3160 3161 3166 3168 3169 3171 3172 3173 3174 3175 3177 3178 3178 3180 3180 3181 3183 3184 3185 3188 3189 3191 3193 3194 3195 3197
3130 3130 3129 3129 3129 3128 3127 3127 3127 3126 3126 3126 3127 3127 3127 3127 3128 3128 3128 3128 3129 3130 3131 3132 3132 3133 3133 3134 3135 3137 3138 3140 3141 3142 3143 3144 3145 3146 3147 3148 3149 3150 3152 3154 3156 3157 3159 3160 3161 3161 3162 3163 3163 3164 3164 3164 3164 3164 3164 3164 3164 3164 3164 3165 3168 3169 3171 3172 3174 3175 3175 3176 3178 3179 3180 3181 3181 3182 3185 3187 3188 3190 3191 3192 3194 3195 3196 3198
3130 3129 3128 3128 3127 3127 3127 3126 3126 3125 3125 3125 3125 3125 3126 3126 3126 3126 3126 3127 3127 3128 3129 3130 3131 3131 3132 3133 3134 3135 3137 3138 3139 3140 3142 3143 3144 3145 3146 3147 3148 3149 3151 3152 3154 3156 3158 3159 3160 3161 3162 3163 3164 3164 3164 3165 3164 3165 3165 3165 3166 3166 3167 3169 3170 3171 3172 3174 3175 3175 3176 3177 3178 3179 3181 3182 3183 3184 3186 3189 3190 3192 3193 3194 3195 3196 3197 3199
3129 3128 3127 3127 3126 3126 3125 3125 3125 3124 3124 3124 3124 3124 3124 3124 3124 3124 3125 3125 3125 3126 3127 3128 3129 3130 3131 3132 3133 3134 3136 3137 3138 3139 3141 3142 3143 3144 3145 3146 3147 3148 3150 3151 3153 3156 3157 3159 3160 3162 3163 3164 3164 3164 3165 3165 3165 3165 3165 3166 3166 3167 3168 3169 3170 3171 3173 3175 3176 3176 3177 3178 3179 3180 3182 3183 3185 3187 3188 3190 3191 3192 3194 3196 3197 3198 3199 3200
3128 3127 3126 3126 3125 3125 3124 3123 3123 3123 3123 3123 3123 3123 3123 3123 3123 3123 3123 3123 3124 3125 3125 3126 3127 3128 3129 3130 3131 3133 3134 3135 3136 3138 3139 3141 3142 3143 3145 3145 3146 3148 3149 3151 3153 3155 3157 3159 3161 3162 3163 3164 3164 3165 3165 3165 3165 3166 3166 3166 3167 3167 3167 3167 3169 3172 3174 3176 3177 3177 3177 3178 3179 3181 3183 3184 3186 3188 3189 3190 3192 3193 3195 3197 3199 3200 3201 3202
3127 3126 3125 3124 3124 3123 3123 3122 3122 3122 3121 3121 3121 3121 3122 3122 3122 3122 3122 3122 3122 3123 3124 3125 3126 3127 3128 3129 3130 3131 3132 3134 3135 3136 3138 3139 3141 3143 3144 3145 3146 3148 3149 3151 3153 3155 3157 3159 3161 3162 3163 3163 3164 3164 3165 3166 3166 3166 3166 3167 3167 3167 3166 3168 3170 3173 3174 3175 3176 3177 3178 3179 3180 3182 3183 3185 3186 3189 3190 3190 3192 3194 3196 3198 3200 3201 3202 3203
3126 3125 3124 3123 3122 3122 3122 3121 3120 3120 3120 3120 3120 3120 3120 3120 3120 3120 3121 3121 3121 3122 3122 3123 3124 3125 3126 3127 3129 3130 3131 3133 3134 3135 3137 3138 3140 3142 3143 3145 3146 3147 3149 3150 3153 3155 3157 3159 3161 3162 3162 3163 3164 3164 3165 3165 3166 3166 3166 3167 3167 3166 3167 3169 3171 3172 3173 3175 3176 3177 3179 3180 3182 3183 3184 3185 3187 3188 3190 3191 3192 3194 3196 3198 3200 3202 3203 3204
3125 3124 3123 3122 3121 3120 3120 3119 3119 3118 3118 3118 3118 3118 3119 3119 3119 3119 3119 3120 3120 3120 3121 3121 3123 3124 3124 3126 3127 3128 3130 3131 3133 3134 3135 3137 3139 3141 3142 3144 3146 3147 3148 3150 3152 3154 3157 3159 3160 3161 3162 3163 3164 3164 3165 3165 3166 3166 3166 3167 3166 3166 3169 3171 3171 3172 3173 3175 3176 3178 3179 3181 3182 3183 3184 3186 3187 3188 3190 3191 3193 3195 3197 3199 3201 3203 3204 3205
3124 3123 3122 3121 3120 3119 3118 3118 3117 3117 3116 3116 3116 3117 3117 3117 3117 3117 3118 3118 3119 3119 3119 3120 3121 3122 3123 3124 3126 3127 3128 3130 3131 3133 3134 3136 3138 3139 3141 3143 3145 3147 3148 3150 3152 3154 3157 3158 3159 3160 3161 3162 3163 3164 3165 3165 3166 3166 3166 3167 3166 3167 3170 3172 3172 3172 3173 3174 3176 3178 3180 3181 3182 3183 3184 3186 3187 3188 3190 3191 3193 3195 3198 3200 3202 3203 3204 3206
3123 3122 3121 3120 3119 3118 3117 3116 3116 3115 3115 3115 3115 3115 3115 3115 3115 3116 3116 3117 3117 3118 3118 3119 3120 3121 3122 3123 3125 3126 3127 3129 3130 3132 3134 3135 3137 3138 3140 3142 3144 3146 3148 3150 3152 3154 3156 3157 3159 3160 3161 3162 3163 3164 3164 3165 3166 3166 3166 3167 3167 3167 3170 3171 3172 3172 3174 3174 3175 3178 3180 3181 3181 3183 3184 3186 3187 3189 3190 3191 3193 3195 3198 3200 3202 3203 3205 3206
3122 3121 3120 3119 3118 3117 3116 3115 3114 3114 3113 3113 3113 3113 3113 3114 3114 3114 3115 3116 3116 3117 3117 3117 3118 3119 3121 3122 3123 3124 3126 3128 3130 3132 3133 3135 3136 3137 3139 3141 3143 3144 3146 3148 3151 3154 3155 3157 3158 3159 3160 3162 3163 3163 3164 3165 3165 3165 3166 3167 3168 3168 3170 3171 3171 3172 3173 3174 3176 3178 3179 3179 3181 3182 3184 3186 3187 3189 3190 3191 3194 3195 3198 3200 3202 3204 3205 3206
3122 3120 3119 3118 3117 3116 3115 3114 3113 3112 3112 3112 3112 3112 3112 3112 3112 3113 3113 3114 3115 3115 3116 3116 3117 3118 3119 3120 3122 3124 3126 3128 3130 3131 3133 3134 3135 3137 3139 3141 3142 3143 3144 3146 3148 3152 3154 3156 3157 3158 3160 3161 3162 3163 3164 3164 3165 3166 3166 3167 3168 3169 3170 3171 3171 3172 3173 3174 3175 3177 3178 3179 3181 3182 3184 3186 3187 3189 3190 3192 3193 3195 3197 3200 3202 3204 3205 3207
3121 3120 3119 3118 3117 3116 3115 3114 3113 3112 3111 3110 3110 3110 3110 3110 3111 3111 3112 3113 3114 3114 3115 3115 3116 3117 3118 3119 3121 3123 3125 3127 3129 3130 3131 3133 3135 3136 3138 3140 3142 3143 3144 3145 3146 3149 3152 3154 3156 3158 3159 3160 3162 3163 3163 3164 3165 3165 3166 3167 3168 3169 3169 3170 3171 3172 3173 3174 3175 3176 3177 3179 3181 3182 3184 3185 3187 3189 3191 3192 3194 3195 3197 3200 3202 3204 3205 3207
3121 3119 3118 3117 3116 3115 3114 3113 3112 3111 3110 3110 3109 3109 3109 3109 3110 3110 3112 3113 3113 3114 3114 3114 3115 3116 3117 3118 3120 3122 3124 3125 3127 3128 3130 3132 3133 3135 3136 3138 3140 3142 3143 3144 3146 3148 3151 3153 3155 3157 3158 3160 3161 3162 3163 3164 3164 3165 3166 3166 3167 3168 3169 3170 3171 3172 3174 3175 3176 3176 3177 3179 3180 3182 3183 3185 3187 3189 3191 3193 3194 3195 3197 3200 3202 3204 3205 3207
3120 3119 3118 3117 3116 3115 3114 3113 3111 3110 3109 3109 3108 3108 3109 3109 3109 3110 3111 3112 3112 3113 3113 3113 3114 3116 3117 3118 3120 3121 3122 3123 3125 3127 3128 3130 3132 3134 3136 3137 3139 3141 3142 3144 3145 3148 3150 3152 3154 3156 3158 3159 3161 3162 3163 3163 3163 3164 3165 3166 3167 3168 3169 3170 3171 3172 3173 3175 3176 3177 3178 3179 3180 3181 3182 3185 3187 3189 3190 3192 3194 3195 3197 3200 3202 3203 3205 3206
3119 3118 3117 3116 3115 3114 3113 3112 3111 3110 3109 3108 3108 3108 3108 3108 3108 3109 3110 3111 3111 3112 3112 3113 3114 3115 3116 3117 3119 3120 3121 3122 3124 3125 3126 3128 3130 3133 3135 3136 3138 3140 3141 3143 3145 3147 3149 3151 3153 3156 3157 3158 3160 3161 3161 3161 3162 3164 3165 3166 3167 3168 3169 3170 3171 3172 3173 3174 3175 3176 3177 3178 3180 3181 3183 3184 3186 3189 3190 3192 3194 3196 3197 3199 3201 3203 3204 3206
3118 3117 3116 3115 3114 3113 3113 3112 3111 3110 3109 3108 3108 3107 3107 3107 3108 3108 3109 3109 3110 3111 3111 3112 3113 3114 3115 3116 3117 3119 3121 3122 3123 3124 3125 3127 3129 3131 3133 3135 3137 3139 3140 3142 3144 3146 3148 3150 3152 3154 3155 3157 3159 3160 3161 3162 3164 3165 3166 3167 3168 3168 3169 3171 3172 3172 3173 3174 3175 3176 3177 3178 3179 3181 3183 3184 3186 3188 3190 3192 3194 3196 3197 3199 3201 3202 3204 3206
3117 3116 3115 3115 3114 3113 3112 3112 3111 3110 3109 3108 3107 3107 3107 3107 3107 3108 3108 3109 3109 3110 3110 3111 3112 3114 3114 3115 3117 3119 3121 3122 3123 3124 3125 3127 3128 3131 3132 3134 3136 3138 3140 3142 3144 3146 3148 3149 3151 3153 3155 3158 3160 3161 3162 3163 3164 3166 3167 3167 3168 3169 3170 3171 3172 3172 3173 3174 3175 3176 3177 3178 3180 3181 3182 3184 3185 3187 3189 3191 3193 3195 3197 3198 3200 3202 3204 3206
3117 3116 3115 3114 3113 3113 3112 3112 3111 3110 3109 3108 3107 3107 3107 3107 3107 3108 3108 3108 3108 3109 3110 3111 3112 3114 3115 3116 3117 3119 3120 3122 3123 3124 3125 3126 3128 3130 3132 3133 3135 3137 3140 3142 3144 3145 3147 3148 3150 3154 3157 3158 3160 3161 3162 3163 3164 3165 3166 3167 3168 3169 3169 3170 3172 3172 3173 3174 3175 3176 3177 3179 3180 3181 3182 3183 3184 3186 3188 3190 3192 3194 3196 3198 3199 3201 3203 3205
3117 3116 3115 3114 3113 3113 3112 3112 3111 3110 3109 3108 3108 3107 3107 3107 3107 3107 3108 3108 3108 3108 3109 3111 3112 3114 3115 3116 3117 3119 3120 3122 3123 3124 3125 3126 3127 3129 3131 3133 3135 3137 3139 3141 3143 3145 3146 3147 3151 3154 3156 3157 3159 3161 3162 3162 3163 3164 3166 3167 3168 3169 3169 3170 3171 3172 3173 3174 3174 3175 3177 3178 3180 3181 3182 3182 3184 3186 3188 3190 3192 3194 3196 3197 3199 3200 3203 3205
3116 3115 3114 3114 3113 3113 3113 3112 3111 3110 3110 3109 3108 3107 3107 3107 3107 3107 3107 3107 3107 3108 3109 3111 3113 3115 3115 3117 3118 3119 3121 3122 3123 3124 3125 3126 3128 3130 3131 3133 3135 3138 3139 3141 3142 3144 3146 3148 3151 3154 3155 3157 3158 3160 3161 3162 3163 3164 3165 3166 3167 3168 3169 3170 3170 3171 3172 3173 3174 3175 3177 3177 3178 3180 3181 3182 3184 3186 3188 3189 3191 3193 3194 3196 3198 3200 3202 3204
3116 3115 3114 3114 3113 3113 3113 3112 3111 3111 3110 3109 3108 3108 3107 3107 3107 3107 3107 3107 3108 3108 3110 3112 3114 3115 3116 3117 3118 3120 3122 3123 3124 3125 3126 3127 3128 3130 3132 3134 3136 3137 3139 3141 3142 3144 3146 3148 3151 3153 3154 3156 3157 3159 3160 3161 3162 3163 3164 3165 3167 3168 3169 3169 3170 3170 3172 3173 3173 3175 3177 3176 3177 3178 3179 3181 3183 3184 3186 3188 3189 3191 3193 3195 3197 3199 3200 3202
3116 3115 3114 3114 3114 3113 3113 3112 3111 3111 3110 3109 3109 3108 3108 3108 3108 3107 3107 3108 3109 3110 3112 3114 3115 3116 3117 3119 3120 3121 3123 3124 3125 3126 3127 3128 3130 3131 3132 3134 3136 3138 3139 3141 3142 3144 3145 3148 3150 3152 3153 3155 3156 3158 3160 3161 3161 3162 3163 3165 3167 3168 3168 3169 3169 3170 3171 3172 3173 3174 3176 3175 3176 3177 3178 3179 3181 3182 3185 3186 3188 3190 3192 3193 3195 3197 3198 3201
3115 3115 3114 3114 3114 3113 3113 3112 3112 3111 3110 3110 3109 3109 3109 3109 3109 3108 3108 3109 3110 3112 3114 3115 3116 3117 3118 3120 3121 3122 3123 3125 3126 3127 3128 3130 3131 3132 3133 3134 3136 3138 3139 3141 3143 3143 3144 3147 3149 3150 3152 3154 3155 3156 3158 3160 3160 3161 3163 3165 3167 3167 3168 3168 3168 3168 3169 3170 3172 3174 3174 3174 3175 3175 3177 3178 3180 3181 3183 3184 3186 3188 3190 3192 3193 3195 3197 3199
3115 3115 3114 3114 3114 3113 3113 3113 3112 3112 3111 3111 3111 3110 3110 3110 3110 3110 3110 3110 3112 3114 3115 3116 3117 3118 3119 3120 3122 3123 3124 3125 3126 3128 3129 3131 3132 3132 3134 3135 3136 3138 3139 3141 3142 3142 3143 3146 3148 3149 3150 3152 3153 3154 3157 3159 3160 3160 3162 3165 3166 3167 3167 3167 3167 3168 3169 3170 3172 3173 3173 3174 3174 3174 3175 3177 3178 3180 3181 3182 3184 3186 3188 3190 3192 3194 3196 3198
3115 3115 3115 3114 3114 3114 3113 3113 3113 3113 3112 3112 3112 3112 3111 3111 3111 3111 3111 3112 3115 3115 3116 3117 3118 3118 3119 3121 3122 3124 3125 3125 3127 3128 3129 3131 3132 3133 3134 3135 3137 3138 3139 3140 3140 3141 3143 3146 3147 3148 3149 3150 3151 3154 3156 3158 3159 3160 3162 3164 3166 3166 3166 3166 3167 3168 3169 3170 3171 3171 3173 3174 3173 3172 3174 3175 3176 3176 3176 3178 3181 3183 3186 3188 3190 3192 3195 3197
3116 3115 3115 3115 3115 3115 3114 3114 3114 3113 3113 3113 3113 3112 3112 3112 3112 3111 3111 3114 3117 3116 3117 3118 3119 3119 3120 3122 3123 3124 3125 3126 3127 3128 3130 3131 3132 3133 3135 3136 3137 3138 3139 3139 3140 3141 3143 3144 3146 3147 3147 3148 3150 3153 3155 3156 3158 3159 3162 3164 3165 3166 3165 3166 3168 3168 3170 3171 3169 3169 3172 3173 3172 3170 3171 3174 3174 3173 3172 3175 3178 3181 3184 3187 3189 3191 3193 3196
3116 3116 3115 3116 3116 3115 3115 3115 3115 3115 3114 3114 3114 3113 3113 3113 3113 3112 3113 3116 3118 3117 3118 3118 3119 3120 3121 3122 3123 3124 3125 3126 3127 3128 3130 3131 3132 3133 3134 3135 3137 3137 3138 3139 3139 3140 3142 3143 3143 3144 3145 3147 3150 3152 3153 3155 3157 3159 3162 3163 3164 3165 3165 3167 3168 3169 3172 3171 3168 3169 3171 3172 3172 3169 3169 3171 3171 3170 3171 3173 3176 3179 3182 3185 3187 3190 3192 3195
3117 3116 3116 3116 3116 3116 3116 3116 3116 3116 3116 3115 3115 3115 3115 3114 3113 3113 3116 3118 3118 3118 3118 3119 3120 3120 3121 3122 3123 3124 3125 3126 3127 3128 3129 3130 3132 3133 3134 3135 3136 3137 3138 3138 3138 3140 3140 3141 3141 3142 3144 3146 3148 3150 3152 3154 3155 3157 3160 3161 3162 3164 3165 3168 3169 3170 3172 3171 3168 3169 3171 3173 3171 3167 3168 3169 3170 3170 3171 3172 3174 3176 3179 3182 3186 3188 3191 3194
3118 3117 3117 3117 3117 3117 3117 3117 3117 3117 3117 3117 3117 3116 3115 3115 3114 3115 3118 3119 3118 3118 3119 3119 3120 3120 3121 3122 3123 3124 3125 3127 3127 3128 3129 3130 3132 3133 3134 3135 3136 3136 3137 3137 3138 3139 3139 3139 3140 3142 3143 3145 3147 3148 3150 3151 3153 3155 3157 3159 3161 3163 3166 3169 3170 3171 3171 3169 3168 3169 3171 3172 3169 3166 3168 3169 3170 3171 3172 3172 3174 3175 3178 3181 3184 3187 3190 3193
3118 3118 3118 3118 3118 3119 3119 3119 3118 3118 3119 3118 3118 3117 3115 3115 3117 3119 3119 3119 3119 3119 3118 3119 3119 3120 3121 3122 3123 3124 3126 3127 3127 3128 3129 3130 3131 3133 3134 3134 3135 3136 3136 3137 3138 3138 3138 3138 3139 3141 3142 3143 3144 3146 3147 3149 3150 3152 3154 3156 3158 3161 3166 3171 3172 3172 3170 3168 3168 3170 3171 3170 3167 3166 3167 3167 3168 3169 3171 3172 3174 3175 3178 3180 3183 3186 3189 3191
3119 3119 3119 3120 3120 3120 3120 3120 3120 3120 3120 3120 3119 3118 3116 3117 3120 3121 3120 3120 3120 3119 3118 3119 3119 3120 3121 3122 3123 3124 3125 3126 3127 3127 3128 3130 3131 3132 3133 3134 3134 3135 3136 3136 3137 3137 3137 3137 3137 3139 3140 3141 3142 3144 3146 3148 3150 3151 3153 3155 3156 3157 3162 3167 3169 3169 3167 3166 3168 3170 3171 3168 3165 3166 3165 3165 3166 3167 3168 3171 3173 3174 3177 3180 3183 3185 3187 3190
3120 3120 3121 3121 3121 3121 3121 3121 3121 3121 3121 3121 3120 3118 3118 3121 3122 3121 3121 3121 3120 3120 3119 3119 3120 3121 3122 3122 3123 3124 3125 3126 3126 3127 3129 3130 3131 3132 3133 3133 3134 3134 3135 3136 3136 3137 3136 3136 3136 3138 3139 3140 3142 3144 3146 3148 3149 3150 3152 3153 3154 3155 3158 3161 3162 3162 3163 3165 3167 3168 3167 3165 3164 3164 3164 3164 3165 3166 3167 3170 3172 3173 3175 3178 3181 3184 3186 3189
3121 3121 3122 3122 3122 3122 3122 3122 3123 3122 3122 3122 3120 3120 3122 3123 3123 3122 3122 3122 3121 3121 3121 3120 3121 3122 3122 3123 3123 3124 3125 3125 3126 3128 3129 3130 3131 3132 3132 3133 3133 3134 3134 3135 3136 3136 3136 3135 3136 3137 3138 3139 3141 3143 3145 3146 3147 3148 3149 3150 3152 3156 3158 3158 3159 3160 3161 3163 3165 3165 3164 3163 3164 3164 3163 3164 3165 3165 3167 3168 3171 3172 3173 3176 3179 3182 3185 3187
3122 3123 3123 3123 3123 3123 3123 3124 3124 3123 3123 3122 3121 3122 3124 3124 3124 3124 3124 3123 3122 3122 3121 3121 3122 3123 3123 3123 3124 3124 3125 3126 3127 3128 3129 3131 3132 3132 3132 3133 3133 3133 3133 3135 3136 3136 3136 3135 3135 3136 3137 3138 3140 3141 3143 3145 3146 3146 3147 3149 3152 3155 3156 3157 3158 3160 3161 3162 3162 3162 3162 3162 3162 3162 3162 3163 3164 3165 3166 3168 3170 3171 3172 3174 3177 3180 3183 3185
3123 3123 3124 3124 3124 3124 3124 3125 3124 3124 3124 3122 3122 3124 3125 3125 3125 3125 3124 3124 3123 3123 3122 3122 3122 3123 3123 3123 3124 3125 3126 3127 3128 3129 3130 3131 3132 3133 3133 3133 3133 3133 3133 3134 3135 3136 3135 3135 3135 3135 3136 3137 3138 3140 3141 3143 3144 3145 3146 3149 3151 3152 3153 3154 3156 3157 3159 3162 3162 3160 3161 3160 3160 3161 3161 3162 3163 3164 3165 3167 3169 3170 3172 3174 3176 3179 3182 3184
3124 3124 3125 3125 3125 3125 3125 3125 3125 3125 3125 3124 3124 3125 3126 3126 3126 3126 3125 3125 3124 3124 3123 3123 3123 3124 3124 3124 3125 3125 3126 3127 3128 3129 3130 3131 3132 3133 3133 3133 3133 3133 3133 3134 3135 3135 3135 3135 3134 3134 3135 3136 3137 3138 3139 3140 3142 3144 3145 3147 3148 3150 3151 3152 3153 3153 3155 3159 3161 3160 3159 3158 3158 3160 3161 3162 3162 3163 3165 3167 3168 3170 3171 3173 3175 3178 3180 3183
3125 3125 3126 3126 3125 3126 3126 3125 3126 3126 3125 3125 3126 3127 3127 3127 3127 3126 3126 3126 3125 3125 3124 3124 3125 3124 3125 3125 3125 3126 3127 3128 3129 3129 3130 3131 3133 3133 3133 3133 3133 3134 3134 3135 3135 3135 3135 3135 3134 3134 3134 3135 3135 3136 3138 3139 3141 3142 3143 3144 3145 3148 3149 3150 3151 3151 3151 3155 3158 3158 3158 3156 3156 3158 3160 3161 3162 3162 3164 3166 3168 3170 3171 3173 3175 3176 3179 3182
3126 3126 3126 3127 3127 3127 3126 3126 3126 3126 3126 3127 3127 3127 3127 3127 3127 3127 3127 3127 3126 3126 3126 3126 3126 3125 3126 3126 3126 3127 3128 3128 3129 3130 3131 3132 3133 3133 3133 3133 3133 3134 3134 3135 3135 3135 3135 3135 3134 3133 3133 3133 3134 3135 3137 3139 3141 3141 3142 3143 3144 3145 3147 3148 3149 3150 3150 3151 3153 3155 3155 3153 3155 3157 3158 3159 3161 3161 3163 3165 3167 3169 3171 3173 3174 3176 3178 3181
3127 3127 3127 3127 3127 3127 3127 3127 3127 3127 3127 3128 3128 3128 3128 3128 3128 3128 3128 3127 3127 3127 3127 3127 3127 3127 3127 3127 3127 3128 3128 3129 3130 3131 3132 3133 3133 3133 3133 3134 3134 3134 3134 3134 3135 3135 3135 3134 3134 3134 3133 3133 3133 3134 3136 3138 3140 3141 3141 3142 3143 3144 3145 3146 3147 3148 3149 3150 3151 3152 3152 3153 3154 3156 3157 3159 3160 3161 3163 3165 3167 3169 3171 3172 3174 3176 3178 3180
3127 3128 3128 3128 3128 3128 3128 3128 3128 3128 3128 3129 3129 3129 3129 3129 3129 3129 3128 3128 3128 3128 3128 3128 3128 3128 3128 3128 3129 3129 3129 3130 3130 3131 3132 3133 3133 3133 3133 3134 3134 3134 3134 3134 3134 3134 3134 3134 3134 3134 3133 3133 3133 3134 3135 3137 3138 3139 3140 3141 3142 3142 3143 3144 3145 3146 3147 3148 3149 3151 3152 3153 3153 3155 3157 3158 3159 3161 3163 3165 3167 3169 3171 3173 3174 3175 3178 3181
3128 3128 3129 3129 3129 3128 3128 3128 3129 3129 3129 3130 3130 3129 3129 3129 3129 3129 3129 3129 3129 3129 3128 3128 3129 3129 3129 3129 3129 3129 3129 3130 3131 3132 3132 3132 3133 3133 3133 3134 3134 3134 3134 3134 3134 3134 3134 3134 3134 3134 3134 3134 3134 3135 3135 3136 3137 3137 3138 3139 3140 3141 3142 3143 3144 3145 3146 3147 3148 3149 3150 3151 3152 3154 3155 3157 3159 3160 3162 3164 3166 3168 3170 3172 3173 3175 3178 3180
3128 3129 3129 3129 3129 3129 3129 3129 3129 3129 3130 3130 3130 3130 3130 3130 3129 3130 3130 3129 3129 3129 3129 3129 3129 3129 3129 3129 3129 3129 3129 3130 3131 3131 3132 3132 3133 3133 3133 3133 3134 3134 3134 3134 3134 3134 3134 3134 3133 3133 3134 3136 3136 3136 3136 3135 3136 3136 3137 3138 3139 3140 3141 3142 3143 3144 3145 3146 3147 3147 3148 3149 3151 3153 3154 3156 3158 3160 3161 3163 3165 3167 3169 3171 3173 3175 3177 3179
3129 3129 3129 3129 3129 3129 3130 3130 3130 3130 3130 3130 3130 3130 3130 3130 3130 3130 3130 3130 3130 3130 3130 3130 3130 3130 3130 3130 3130 3129 3129 3130 3130 3131 3132 3132 3132 3133 3133 3133 3133 3134 3134 3134 3135 3135 3135 3134 3133 3133 3134 3136 3137 3137 3136 3136 3135 3136 3136 3137 3138 3139 3140 3141 3142 3142 3143 3145 3146 3146 3147 3148 3150 3152 3153 3155 3157 3158 3160 3162 3164 3166 3168 3170 3172 3174 3175 3177
3129 3129 3129 3130 3130 3130 3130 3130 3130 3130 3130 3130 3130 3130 3130 3131 3130 3130 3131 3130 3130 3130 3130 3131 3131 3131 3131 3131 3130 3130 3130 3130 3131 3131 3132 3132 3132 3133 3133 3133 3134 3134 3134 3135 3135 3135 3135 3134 3135 3135 3135 3136 3137 3137 3136 3136 3136 3136 3136 3137 3137 3138 3139 3140 3141 3142 3143 3144 3144 3145 3146 3147 3148 3150 3152 3153 3155 3157 3159 3161 3163 3165 3167 3169 3171 3173 3174 3175
3129 3129 3129 3130 3130 3130 3130 3130 3130 3131 3131 3131 3131 3131 3131 3131 3131 3131 3131 3131 3131 3131 3131 3131 3131 3131 3131 3131 3131 3131 3131 3131 3131 3132 3132 3132 3133 3133 3134 3134 3134 3133 3134 3134 3135 3136 3136 3135 3135 3137 3138 3138 3138 3137 3137 3137 3137 3137 3136 3136 3137 3138 3139 3139 3140 3141 3142 3143 3143 3144 3145 3146 3147 3149 3150 3152 3154 3156 3158 3161 3162 3164 3167 3169 3171 3172 3173 3174
3128 3129 3129 3130 3130 3130 3130 3130 3131 3131 3131 3131 3131 3131 3131 3131 3131 3131 3131 3131 3131 3131 3131 3131 3131 3131 3131 3132 3132 3132 3132 3132 3132 3132 3133 3133 3133 3133 3134 3134 3134 3133 3134 3134 3135 3135 3136 3135 3135 3137 3139 3139 3138 3137 3137 3137 3138 3137 3136 3136 3136 3137 3138 3139 3139 3140 3141 3142 3143 3144 3144 3145 3146 3147 3149 3151 3153 3156 3158 3160 3162 3164 3166 3168 3170 3171 3171 3172
3128 3129 3129 3129 3130 3130 3130 3130 3130 3131 3131 3131 3131 3131 3131 3131 3131 3131 3131 3131 3131 3131 3131 3131 3131 3131 3131 3132 3132 3132 3132 3133 3133 3133 3133 3134 3134 3134 3134 3134 3134 3134 3134 3134 3134 3135 3135 3136 3135 3136 3139 3140 3139 3138 3138 3138 3138 3138 3137 3136 3136 3136 3137 3138 3138 3139 3140 3141 3143 3143 3143 3144 3145 3147 3148 3151 3153 3155 3157 3159 3161 3163 3165 3167 3168 3170 3170 3170
3128 3128 3129 3129 3129 3129 3130 3130 3130 3131 3131 3131 3131 3131 3131 3131 3131 3131 3131 3131 3131 3131 3131 3131 3131 3131 3132 3132 3132 3132 3132 3133 3133 3133 3134 3134 3134 3135 3135 3134 3134 3134 3134 3134 3135 3135 3135 3136 3136 3136 3138 3140 3140 3139 3139 3139 3139 3138 3138 3137 3137 3136 3136 3137 3138 3138 3139 3140 3142 3142 3142 3142 3144 3146 3148 3150 3152 3154 3155 3158 3160 3162 3164 3165 3167 3168 3170 3170
3127 3128 3128 3128 3129 3129 3129 3130 3130 3131 3131 3131 3131 3131 3130 3130 3130 3130 3131 3131 3131 3131 3131 3131 3131 3132 3132 3132 3132 3132 3133 3133 3133 3133 3134 3134 3135 3135 3135 3135 3135 3135 3135 3135 3135 3135 3135 3135 3136 3136 3137 3139 3140 3141 3140 3139 3140 3140 3139 3138 3138 3138 3137 3137 3137 3138 3139 3140 3141 3141 3142 3143 3143 3145 3146 3148 3151 3153 3155 3158 3160 3161 3162 3164 3165 3167 3168 3169